Find Local Weather

World > North America > United States > Wisconsin

Shawano, Wisconsin Regional Weather

Lat: 44.78N, Lon: 88.59W
Wx Zone: WIZ031
Warning FLW WEATHER ALERT - (More Info. Click Here) Warning
Feedback
Expires:201812120800;;666657
ASUS43 KMKX 120720
RWRWI 

WISCONSIN REGIONAL WEATHER ROUNDUP
NATIONAL WEATHER SERVICE MILWAUKEE/SULLIVAN WI
100 AM CST WED DEC 12 2018

NOTE: "FAIR" INDICATES FEW OR NO CLOUDS BELOW 12,000 FEET WITH NO
SIGNIFICANT WEATHER AND/OR OBSTRUCTIONS TO VISIBILITY.


WIZ011>013-019>022-031-037>040-048>050-120800-
NORTHEAST WISCONSIN
  
CITY           SKY/WX    TMP DP  RH WIND       PRES   REMARKS
ANTIGO         CLOUDY    23  23  99 SE8       29.88F FOG     WCI  14  
SHAWANO        CLOUDY    28  25  86 E5        29.93F WCI  23          
OCONTO         CLOUDY    27  22  81 CALM      29.97F                  
STURGEON BAY   CLOUDY    29  25  85 SE9       29.96F WCI  20          
GREEN BAY      CLOUDY    29  24  82 E8        29.94F WCI  21          
MANITOWOC      CLOUDY    34  28  79 SE10      29.95F WCI  26          
APPLETON       FAIR      28  23  80 E7        29.89F WCI  21          
CLINTONVILLE   CLOUDY    28  23  84 E5        29.92F WCI  22          
OSHKOSH        FAIR      28  25  88 SE8       29.90F WCI  20          
$$
 

SKY/WX - Weather  TMP - Temperature  DP - Dew Point  RH - Relative Humidity
WIND - Wind Direction/Speed PRES - Barometric Pressure